www.pogodaiklimat.ru

Погода и климат >> Архив погоды >> Канада >> Cambridge Bay Arpt


ПОГОДА в Cambridge Bay Arpt

  • Прогноз погоды в Cambridge Bay Arpt
  • Монитор погоды в Cambridge Bay Arpt
  • Климат города

АРХИВ ПОГОДЫ в Cambridge Bay Arpt

Время (UTC), дата Ветер
(напр.,м/с)
 
Видим.   Явления Облачность Т
(С)
Тd
(С)
f
(%)
Тe
(С)
Тes
(С)
Комфортность P
(гПа)
Po
(гПа)
Тmin
(С)
Tmax
(С)
R
(мм)
R24
(мм)
S
(см)
09 14.10 СЗ 4 16 км 6/6 300 м
[]
-11.7 -14.1 82 -18 -18 1012.2 1008.1
12 14.10 С 3 16 км 8/8 600 м
[Sc]
-12.4 -14.6 84 -18 -18 1011.3 1007.2 -12.8 6
15 14.10 С 3 16 км 10/10 600 м
[]
-11.9 -14.0 84 -17 -17 1010.5 1006.4
18 14.10 В 4 16 км слабый снег 9/9 600 м
[Sc]
-10.5 -13.4 79 -17 -17 1009.4 1005.3 -13.2 -10.3 0.0 6
21 14.10 ЮВ 6 9000 м 10/10 600 м
[]
-10.2 -12.5 83 -19 -19 1008.7 1004.6
00 15.10 ЮВ 6 11 км слабый снег 10/10 600 м
[Sc]
-9.7 -12.6 79 -18 -18 1008.4 1004.3 -13.2 -9.7 0.4 6
03 15.10 ЮВ 5 12 км 10/10 200 м
[]
-9.8 -12.4 81 -17 -17 1007.5 1003.4
06 15.10 ЮВ 5 4000 м слабый снег 10/10 200 м
[Sc]
-10.1 -12.1 85 -18 -18 1006.2 1002.1 -13.2 -9.6 0.2 2
09 15.10 В 6 4000 м 10/10 200 м
[]
-10.2 -12.1 86 -19 -19 1005.3 1001.2
12 15.10 СВ 3 4000 м слабый снег 9/9 200 м
[Sc]
-10.5 -12.7 84 -17 -17 1004.8 1000.7 -10.5 -9.6 0.2 6
15 15.10 С 4 16 км 8/8 200 м
[]
-11.4 -13.6 84 -19 -19 1004.4 1000.3
18 15.10 СЗ 5 24 км в посл. час снег 9/8 300 м
[Sc Ac As]
-11.3 -13.5 84 -19 -19 1004.6 1000.5 -13.4 -9.8 0.0 6
21 15.10 СЗ 6 24 км 9/9 300 м
[]
-17.3 -19.4 84 -27 -27 1004.9 1000.8
00 16.10 С 2 19 км слабый снег 9/9 300 м
[Sc]
-14.8 -16.7 85 -20 -20 1004.6 1000.5 -17.4 -10.4 0.0 8
03 16.10 С 2 8000 м 10/10 300 м
[]
-13.3 -15.0 87 -18 -18 1003.9 999.8
06 16.10 СВ 2 11 км слабый снег 10/10 300 м
[Sc]
-12.6 -14.2 88 -16 -16 1003.7 999.6 -17.4 -9.8 0.4 8
09 16.10 В 2 16 км 5/5 300 м
[]
-13.3 -14.6 90 -17 -17 1004.0 999.9
12 16.10 СВ 2 6000 м ледяные иглы {снег} 1/1 200 м
[Sc]
-17.6 -19.6 84 -23 -23 1004.7 1000.6 -18.7 -9.8 0.0 8
15 16.10 ЮВ 3 19 км 9/9 200 м
[]
-9.1 -10.2 92 -15 -15 1004.7 1000.6
18 16.10 ЮЗ 4 24 км слабый снег 9/9 200 м
[Sc]
-6.2 -9.0 81 -13 -13 1004.7 1000.6 -18.7 -6.2 0.0 8
21 16.10 Ю 7 24 км 6/6 200 м
[]
-6.8 -10.1 77 -15 -15 1004.8 1000.7
00 17.10 Ю 10 19 км слабый снег {ливн. осадки} 9/9 200 м
[Sc]
-7.7 -11.1 77 -18 -18 1005.1 1001.0 -18.7 -5.6 0.0 8
03 17.10 Ю 9 19 км 9/9 200 м
[]
-8.6 -10.5 86 -18 -18 1004.8 1000.7
06 17.10 Ю 6 12 км слабый снег 9/9 200 м
[Sc]
-9.1 -10.6 89 -18 -18 1004.3 1000.3 -18.7 -5.6 0.0 1
09 17.10 ЮВ 5 12 км 9/9 200 м
[]
-8.0 -9.4 90 -16 -16 1004.5 1000.5
12 17.10 ЮВ 5 19 км в посл. час снег 8/6 300 м
[Sc Ac trans]
-9.0 -10.4 90 -16 -16 1004.6 1000.5 -9.6 -5.6 0.0 8
15 17.10 Ю 6 24 км 9/9 200 м
[]
-8.4 -10.3 86 -17 -17 1004.0 999.9
18 17.10 ЮВ 6 24 км осадки на расстоянии 9/6 200 м
[Sc Ac As]
-9.2 -11.1 86 -18 -18 1003.8 999.7 -9.6 -7.8 0.0
21 17.10 ЮВ 7 3200 м 8/8 200 м
[]
-9.4 -11.3 86 -19 -19 1003.1 999.0
00 18.10 Ю 5 4000 м слабый снег {ливн. осадки} 10/10 300 м
[Sc]
-7.7 -9.2 89 -15 -15 1002.8 998.8 -9.6 -7.7 0.8 9
03 18.10 Ю 6 4000 м 10/10 300 м
[]
-6.2 -7.5 90 -14 -14 1002.7 998.7
06 18.10 ЮВ 4 4000 м слабый снег 10/10 300 м
[Sc]
-6.4 -7.3 93 -13 -13 1002.8 998.8 -9.6 -6.2 2 20
09 18.10 ЮВ 3 4000 м 10/10 300 м
[]
-6.8 -7.8 93 -13 -13 1003.1 999.1
12 18.10 В 3 4000 м слабый снег 10/10 300 м
[Sc]
-7.0 -7.9 93 -12 -12 1003.5 999.5 -7.7 -6.2 2 13
15 18.10 В 2 4800 м 8/8 300 м
[]
-7.8 -8.6 94 -12 -12 1003.8 999.8
18 18.10 З 1 24 км {снег} 9/9 100 м
[Sc]
-6.4 -8.0 88 -9 -9 1004.3 1000.3 -9.6 -6.3 0.2 13
21 18.10 СЗ 2 24 км 9/9 200 м
[]
-6.7 -9.4 81 -10 -10 1005.4 1001.4
00 19.10 СВ 2 24 км 9/6 300 м
[Sc Ac trans]
-12.4 -13.7 90 -16 -16 1006.7 1002.6 -12.4 -6.2
03 19.10 СВ 2 19 км 9/9 300 м
[]
-11.9 -13.3 89 -17 -17 1006.8 1002.7
06 19.10 В 3 16 км слабый снег 10/10 300 м
[Sc]
-9.1 -10.2 92 -15 -15 1007.3 1003.2 -13.4 -6.2 0.0 7
09 19.10 В 3 16 км 10/10 300 м
[]
-8.4 -9.5 92 -14 -14 1007.7 1003.6
12 19.10 ЮВ 2 16 км слабый снег 10/10 300 м
[Sc]
-7.6 -8.5 93 -11 -11 1007.9 1003.8 -13.4 -6.2 0.2 13
15 19.10 В 2 19 км 9/9 300 м
[]
-9.2 -10.3 92 -13 -13 1008.1 1004.0
18 19.10 ЮВ 5 24 км {снег} 9/9 200 м
[St]
-7.0 -8.0 93 -14 -14 1007.9 1003.8 -13.4 -7.0 0.0 13
21 19.10 В 6 12 км 10/10 300 м
[]
-7.0 -7.9 93 -15 -15 1007.8 1003.7
00 20.10 В 8 4800 м слабый снег 10/10 300 м
[Sc]
-7.2 -8.2 93 -17 -17 1007.4 1003.3 -9.6 -6.4 0.2 13
03 20.10 В 7 4800 м 10/10 100 м
[]
-6.4 -7.2 94 -15 -15 1006.9 1002.8
06 20.10 В 7 6000 м слабый снег 10/10 100 м
[St]
-5.3 -6.1 94 -14 -14 1006.5 1002.5 -9.6 -5.0 0.0 11
09 20.10 В 8 4000 м 10/10 100 м
[]
-4.8 -5.7 93 -14 -14 1006.0 1002.0
12 20.10 ЮВ 6 16 км слабый снег {морось} 10/10 100 м
[Sc]
-4.5 -5.9 90 -12 -12 1005.6 1001.6 -7.3 -5.0 0.4 13
15 20.10 ЮВ 6 14 км 10/10 100 м
[]
-4.9 -6.8 87 -12 -12 1005.5 1001.5
18 20.10 В 6 4800 м слабый снег {морось} 10/6 100 м
[Sc Ac trans]
-5.0 -6.0 93 -13 -13 1005.1 1001.1 -7.4 -4.4 0.0 13
21 20.10 В 5 6000 м 10/10 200 м
[]
-4.1 -5.0 93 -11 -11 1005.1 1001.1
00 21.10 СВ 4 6000 м слабый снег 10/10 200 м
[Sc]
-4.3 -5.1 94 -11 -11 1005.1 1001.1 -5.4 -4.1 0.2 13
03 21.10 В 3 6000 м 10/10 200 м
[]
-4.6 -5.3 95 -10 -10 1005.5 1001.5
06 21.10 В 2 9000 м слабый снег 10/10 100 м
[Sc]
-4.6 -5.3 95 -9 -9 1006.5 1002.5 -5.4 -4.1 0.2 111

 

Местоположение метеостанции Cambridge Bay Arpt (Канада): широта 69.10 долгота -105.10 высота над уровнем моря 27 м.

В архиве по умолчанию представлена погода в Cambridge Bay Arpt за последнюю неделю. Архивные данные за месяц целиком и за предыдущие месяцы, начиная с января 2011 года, Вы можете получить, выбрав интересующий диапазон дат из раскрывающегося списка и нажав кнопку "Ввод!".

Внимание! Время в таблицах - всемирное. Для получения местного времени необходимо прибавить поправку, которая в Cambridge Bay Arpt равна -7 ч.

Смотрите также архив погоды в соседних городах и на ближайших метеорологических станциях:

Погода в Cape Peel West (Канада) (108 км)
Погода в Ellice River AWS (Канада) (158 км)
Погода в Hat Island (Канада) (223 км)
Погода в Gjoa Haven Climate (Канада) (374 км)
Погода в Kugluktuk (Канада) (432 км)
Погода в Kugluktuk Airport (Канада) (432 км)
Погода в Lupin (Канада) (452 км)
Погода в Lupin (maps) (Канада) (452 км)
Погода в Spence bay (Канада) (454 км)
Погода в Robertson Lake (Канада) (460 км)

Пояснения к столбцам:

Ветер - указаны скорость ветра в м/с - средняя за 10 мин, порывы в срок и между сроками (в фигурных скобках) и направление, откуда дует ветер: С - северный, СВ - северо-восточный, В - восточный, ЮВ - юго-восточный, Ю - южный, ЮЗ - юго-западный, З - западный, СЗ - северо-западный.
Видимость - горизонтальная дальность видимости в метрах или километрах. При видимости от 1 до 10 км при отсутствии осадков обычно наблюдается дымка, при ухудшении видимости до 1 км и менее - туман. В сухую погоду видимость может ухудшаться дымом, пылью или мглою.
Явления - указаны атмосферные явления, наблюдавшиеся в срок или в последний час перед сроком; фигурными скобками обозначены явления, наблюдавшиеся между сроками (за 1-3 часа до срока); квадратными скобками обозначены град или гололедные отложения с указанием их диаметра в мм.
Облачность - указаны через наклонную черту общая и нижняя облачность в баллах и высота нижней границы облаков в метрах; квадратными скобками обозначены формы облаков: Ci - перистые, Cs - перисто-слоистые, Cc - перисто-кучевые, Ac - высококучевые, As - высокослоистые, Sc - слоисто-кучевые, Ns - слоисто-дождевые, Cu - кучевые, Cb - кучево-дождевые. Подробнее классификацию облаков см. в Атласе облаков (PDF).
T - Температура воздуха - температура, измеренная на высоте 2 м над землей.
Td - Температура точки росы - температура, при понижении до которой содержащийся в воздухе водяной пар достигнет насыщения.
f - Относительная влажность воздуха - влажноcть воздуха, измеренная на высоте 2 м над землей.
Te - Эффективная температура - температура, которую ощущает одетый по сезону человек в тени. Характеристика душности погоды. При расчете учитывается влияние влажности воздуха и скорости ветра на теплоощущения человека.
Tes - Эффективная температура на солнце - температура, которую ощущает человек, с поправкой на солнечный нагрев. Характеристика знойности погоды. Зависит от высоты солнца над горизонтом, облачности и скорости ветра. Ночью, в пасмурную погоду, а также при ветре 12 м/с и более поправка равна нулю.
P - Атмосферное давление - приведенное к уровню моря атмосферное давление.
Po - Атмосферное давление - измеренное на уровне метеостанции атмосферное давление.
Tmin - Минимальная температура - минимум температуры воздуха на высоте 2 м над землей.
Tmax - Максимальная температура - максимум температуры воздуха на высоте 2 м над землей.
R - Количество осадков - Количество выпавших осадков за период времени, мм. При наведении курсора мыши на число - период времени, за который выпало указанное количество осадков.
R24 - Количество осадков - Количество выпавших осадков за 24 часа, мм.
S - Снежный покров - Высота снежного покрова, см. При наведении курсора мыши на число - состояние снежного покрова и степень покрытия местности в баллах.